Inversion Research: Above Escarpment

*Note: All times are displayed in the local standard time of the station location.
**Rain - Equipment is designed to accurately record liquid precipitation; under conditions when precipitation is not in liquid form, the data displayed may not properly reflect rainfall values.

Date Max Temp
(°C)
Min Temp
(°C)
Avg Temp
(°C)
Rain (mm) Avg RH (%)
Sat, Feb 17, 2018 -1.5 -6.9 -3.5 - 79.8
Fri, Feb 16, 2018 4.7 -6.3 -0.4 - 84.2
Thu, Feb 15, 2018 7.6 2.9 5.6 - 100.0
Wed, Feb 14, 2018 4.5 -3.6 2.2 - 84.3
Tue, Feb 13, 2018 -1.7 -17.1 -8.5 - 81.1
Mon, Feb 12, 2018 -2.4 -12.3 -5.8 - 78.8
Sun, Feb 11, 2018 0.8 -4.1 -2.0 - 97.9
DateTime Avg Temp (°C) Rain (mm) RH (%)
Sun, Feb 18, 2018 04:00 -2.5 - 95.3
Sun, Feb 18, 2018 03:00 -2.2 - 93.3
Sun, Feb 18, 2018 02:00 -2.1 - 95.5
Sun, Feb 18, 2018 01:00 -2.1 - 96.0
Sun, Feb 18, 2018 00:00 -1.8 - 93.3
Sat, Feb 17, 2018 23:00 -1.6 - 88.5
Sat, Feb 17, 2018 22:00 -1.7 - 81.0
Sat, Feb 17, 2018 21:00 -1.9 - 79.8
Sat, Feb 17, 2018 20:00 -2.0 - 76.8
Sat, Feb 17, 2018 19:00 -2.0 - 72.8
Sat, Feb 17, 2018 18:00 -1.8 - 68.3
Sat, Feb 17, 2018 17:00 -1.7 - 66.5
Sat, Feb 17, 2018 16:00 -1.7 - 69.0
Sat, Feb 17, 2018 15:00 -1.6 - 68.3
Sat, Feb 17, 2018 14:00 -1.7 - 68.5
Sat, Feb 17, 2018 13:00 -1.8 - 69.8
Sat, Feb 17, 2018 12:00 -1.8 - 71.0
Sat, Feb 17, 2018 11:00 -2.2 - 73.0
Sat, Feb 17, 2018 10:00 -3.1 - 77.3
Sat, Feb 17, 2018 09:00 -4.5 - 82.8
Sat, Feb 17, 2018 08:00 -6.2 - 87.5
Sat, Feb 17, 2018 07:00 -6.5 - 90.0
Sat, Feb 17, 2018 06:00 -6.5 - 91.8
Sat, Feb 17, 2018 05:00 -6.3 - 90.5
Sat, Feb 17, 2018 04:00 -6.2 - 89.5
Sat, Feb 17, 2018 03:00 -6.6 - 87.8
Sat, Feb 17, 2018 02:00 -6.8 - 86.3
Sat, Feb 17, 2018 01:00 -6.3 - 84.8
Sat, Feb 17, 2018 00:00 -6.2 - 83.3
Fri, Feb 16, 2018 23:00 -6.2 - 82.5
Fri, Feb 16, 2018 22:00 -5.8 - 82.0
Fri, Feb 16, 2018 21:00 -4.8 - 73.5
Fri, Feb 16, 2018 20:00 -4.1 - 68.8
Fri, Feb 16, 2018 19:00 -3.8 - 66.3
Fri, Feb 16, 2018 18:00 -3.0 - 65.3
Fri, Feb 16, 2018 17:00 -1.7 - 64.8
Fri, Feb 16, 2018 16:00 -0.9 - 67.3
Fri, Feb 16, 2018 15:00 0.3 - 66.0
Fri, Feb 16, 2018 14:00 0.6 - 67.3
Fri, Feb 16, 2018 13:00 1.1 - 73.5
Fri, Feb 16, 2018 12:00 1.2 - 83.5
Fri, Feb 16, 2018 11:00 1.1 - 92.0
Fri, Feb 16, 2018 10:00 1.2 - 92.8
Fri, Feb 16, 2018 09:00 0.8 - 94.5
Fri, Feb 16, 2018 08:00 0.9 - 97.8
Fri, Feb 16, 2018 07:00 1.6 - 100.0
Fri, Feb 16, 2018 06:00 2.1 - 100.0
Fri, Feb 16, 2018 05:00 2.0 - 100.0


asterix Register now to access more data! asterix